Voltar ao catálogo

STARLINK-34639

AtivoComunicaçõesVLEO
NORAD 64767·PAYLOAD·🇺🇸 United States

Lançado Jul 8, 2025 de Cape Canaveral Space Force Station

Loading…

Próximas Passagens (próximas 24 horas)

TLE

AtualizadoSource: CelesTrak SupGP

Época: Sep 14, 2026, 21:35 UTC

1 64767C 25147N   26257.89979167  .00062981  00000+0  18614-2 0  2571
2 64767  53.1578  79.9130 0001049  96.6806  14.6858 15.34348798    14

Acompanhe STARLINK-34639 em tempo real com AllMySat

Download on the App Store